sat.trackr.live / text

‹ back to catalog

STARLINK-2604

NORAD 48374 · 2021-038X

PAYLOAD ACTIVE UNKNOWN

§ Identity

Operator
Country
US
Launch date
2021-05-04
Launch site
AFETR
Launch vehicle
Mass (kg)
RCS (m²)

Purposes: comms

External: N2YO · Heavens-Above · Gunter

§ Orbital elements

Epoch: 2026-09-19T10:50:04.446240Z

Period
94.01 min
Inclination
53.1604°
Eccentricity
0.0001218
Mean motion
15.31695748 rev/d
Perigee alt
469.9 km
Apogee alt
471.6 km
Semi-major
6,848.9 km
B*
1.1519e-6
RAAN
166.0513°
Arg perigee
95.7972°
Mean anomaly
264.3169°
Rev number
29,691

§ Raw data

STARLINK-26041 48374U 21038X   26262.45144035 -.00000329  00000+0  11519-5 0  99902 48374  53.1604 166.0513 0001218  95.7972 264.3169 15.31695748296917

JSON: /api/v1/satellites/48374 · /tle

For live sub-satellite position, see the globe view (requires WebGL).

§ Visibility from observer

Set your observer location to see the next 7 days of passes ≥ 10°. The values pass through the URL so the page stays shareable.

No JS? Fill the form by hand. The geolocation button needs JavaScript.